Time,TemperatureF,DewpointF,PressureIn,WindDirection,WindDirectionDegrees,WindSpeedMPH,WindSpeedGustMPH,Humidity,HourlyPrecipIn,Conditions,Clouds,dailyrainin,SoftwareType,DateUTC
2013-04-27 00:01:00,51.0,44.0,30.37,South,171,0.0,0.0,77,0.00,CLR,,0.00,WeatherDisplay:10.37,2013-04-27 04:01:00,
2013-04-27 00:16:00,50.9,44.3,30.37,South,171,0.0,1.0,78,0.00,CLR,,0.00,WeatherDisplay:10.37,2013-04-27 04:16:00,
2013-04-27 00:31:00,50.9,44.6,30.38,South,171,0.0,0.0,79,0.00,SCT,,0.00,WeatherDisplay:10.37,2013-04-27 04:31:00,
2013-04-27 00:46:00,51.1,45.1,30.38,South,171,0.0,0.0,80,0.00,SCT,,0.00,WeatherDisplay:10.37,2013-04-27 04:46:00,
2013-04-27 01:01:00,51.1,45.1,30.38,South,171,0.0,0.0,80,0.00,SCT,,0.00,WeatherDisplay:10.37,2013-04-27 05:01:00,
2013-04-27 01:16:00,51.2,45.6,30.38,South,171,0.0,0.0,81,0.00,SCT,,0.00,WeatherDisplay:10.37,2013-04-27 05:16:00,
2013-04-27 01:31:00,51.1,45.5,30.38,South,171,0.0,0.0,81,0.00,OVC,,0.00,WeatherDisplay:10.37,2013-04-27 05:31:00,
2013-04-27 01:46:00,50.9,45.3,30.37,South,171,0.0,1.0,81,0.00,OVC,,0.00,WeatherDisplay:10.37,2013-04-27 05:46:00,
2013-04-27 02:01:00,50.9,45.3,30.37,South,171,0.0,0.0,81,0.00,OVC,,0.00,WeatherDisplay:10.37,2013-04-27 06:01:00,
2013-04-27 02:16:00,50.8,45.2,30.36,South,171,0.0,0.0,81,0.00,OVC,,0.00,WeatherDisplay:10.37,2013-04-27 06:16:00,
2013-04-27 02:31:00,50.8,45.2,30.36,South,171,0.0,0.0,81,0.00,BKN,,0.00,WeatherDisplay:10.37,2013-04-27 06:31:00,
2013-04-27 02:46:00,50.7,45.1,30.36,South,171,0.0,0.0,81,0.00,BKN,,0.00,WeatherDisplay:10.37,2013-04-27 06:46:00,
2013-04-27 03:01:00,50.8,45.5,30.36,South,171,0.0,0.0,82,0.00,BKN,,0.00,WeatherDisplay:10.37,2013-04-27 07:01:00,
2013-04-27 03:16:00,50.7,45.7,30.35,South,171,0.0,0.0,83,0.00,BKN,,0.00,WeatherDisplay:10.37,2013-04-27 07:16:00,
2013-04-27 03:31:00,50.7,46.0,30.35,South,171,0.0,1.0,84,0.00,FEW,,0.00,WeatherDisplay:10.37,2013-04-27 07:31:00,
2013-04-27 03:46:00,50.6,45.6,30.36,South,171,0.0,1.0,83,0.00,FEW,,0.00,WeatherDisplay:10.37,2013-04-27 07:46:00,
2013-04-27 04:01:00,50.7,46.0,30.35,South,171,0.0,1.0,84,0.00,FEW,,0.00,WeatherDisplay:10.37,2013-04-27 08:01:00,
2013-04-27 04:16:00,50.7,46.0,30.35,South,171,0.0,0.0,84,0.00,FEW,,0.00,WeatherDisplay:10.37,2013-04-27 08:16:00,
2013-04-27 04:31:00,50.7,46.0,30.35,South,171,0.0,0.0,84,0.00,OVC,,0.00,WeatherDisplay:10.37,2013-04-27 08:31:00,
2013-04-27 04:46:00,50.7,46.4,30.35,South,171,0.0,1.0,85,0.00,OVC,,0.00,WeatherDisplay:10.37,2013-04-27 08:46:00,
2013-04-27 05:01:00,50.6,46.6,30.35,South,171,0.0,1.0,86,0.00,OVC,,0.00,WeatherDisplay:10.37,2013-04-27 09:01:00,
2013-04-27 05:16:00,50.5,46.2,30.35,South,171,0.0,1.0,85,0.00,OVC,,0.00,WeatherDisplay:10.37,2013-04-27 09:16:00,
2013-04-27 05:31:00,50.5,46.1,30.36,South,171,0.0,0.0,85,0.00,OVC,,0.00,WeatherDisplay:10.37,2013-04-27 09:31:00,
2013-04-27 05:46:00,50.6,45.9,30.36,South,171,0.0,0.0,84,0.00,OVC,,0.00,WeatherDisplay:10.37,2013-04-27 09:46:00,
2013-04-27 06:01:00,50.5,45.6,30.36,South,171,0.0,0.0,83,0.00,OVC,,0.00,WeatherDisplay:10.37,2013-04-27 10:01:00,
2013-04-27 06:16:00,50.6,45.9,30.36,South,171,0.0,0.0,84,0.00,OVC,,0.00,WeatherDisplay:10.37,2013-04-27 10:16:00,
2013-04-27 06:31:00,50.7,46.0,30.36,South,171,0.0,0.0,84,0.00,OVC,,0.00,WeatherDisplay:10.37,2013-04-27 10:31:00,
2013-04-27 06:46:00,50.6,45.6,30.36,South,171,0.0,0.0,83,0.00,OVC,,0.00,WeatherDisplay:10.37,2013-04-27 10:46:00,
2013-04-27 07:01:00,50.5,45.5,30.37,South,171,0.0,0.0,83,0.00,OVC,,0.00,WeatherDisplay:10.37,2013-04-27 11:01:00,
2013-04-27 07:16:00,50.4,45.8,30.38,South,171,0.0,0.0,84,0.00,OVC,,0.00,WeatherDisplay:10.37,2013-04-27 11:16:00,
2013-04-27 07:31:00,50.6,46.3,30.38,South,171,0.0,0.0,85,0.00,OVC,,0.00,WeatherDisplay:10.37,2013-04-27 11:31:00,
2013-04-27 07:46:00,50.8,46.5,30.38,South,171,0.0,0.0,85,0.00,OVC,,0.00,WeatherDisplay:10.37,2013-04-27 11:46:00,
2013-04-27 08:01:00,51.3,47.3,30.38,South,172,0.0,0.0,86,0.00,OVC,,0.00,WeatherDisplay:10.37,2013-04-27 12:01:00,
2013-04-27 08:16:00,51.9,47.5,30.37,South,171,0.0,1.0,85,0.00,OVC,,0.00,WeatherDisplay:10.37,2013-04-27 12:16:00,
2013-04-27 08:31:00,52.6,47.3,30.38,South,171,0.0,0.0,82,0.00,OVC,,0.00,WeatherDisplay:10.37,2013-04-27 12:31:00,
2013-04-27 08:46:00,53.6,47.3,30.38,South,171,0.0,2.0,79,0.00,OVC,,0.00,WeatherDisplay:10.37,2013-04-27 12:46:00,
2013-04-27 09:01:00,54.6,47.2,30.39,South,171,0.0,2.0,76,0.00,OVC,,0.00,WeatherDisplay:10.37,2013-04-27 13:01:00,
2013-04-27 09:16:00,55.0,47.6,30.38,South,171,0.0,2.0,76,0.00,OVC,,0.00,WeatherDisplay:10.37,2013-04-27 13:16:00,
2013-04-27 09:31:00,55.6,48.1,30.38,South,171,0.0,2.0,76,0.00,OVC,,0.00,WeatherDisplay:10.37,2013-04-27 13:31:00,
2013-04-27 10:01:00,57.7,47.9,30.37,South,171,0.0,4.0,70,0.00,OVC,,0.00,WeatherDisplay:10.37,2013-04-27 14:01:00,
2013-04-27 10:16:00,59.1,48.1,30.37,South,171,0.0,3.0,67,0.00,OVC,,0.00,WeatherDisplay:10.37,2013-04-27 14:16:00,
2013-04-27 10:31:00,60.1,48.3,30.37,SSW,202,0.0,5.0,65,0.00,SCT,,0.00,WeatherDisplay:10.37,2013-04-27 14:31:00,
2013-04-27 10:46:00,61.2,49.4,30.38,SSW,206,2.0,4.0,65,0.00,SCT,,0.00,WeatherDisplay:10.37,2013-04-27 14:46:00,
2013-04-27 11:01:00,61.8,48.6,30.37,SW,220,2.0,5.0,62,0.00,SCT,,0.00,WeatherDisplay:10.37,2013-04-27 15:01:00,
2013-04-27 11:16:00,62.2,49.4,30.37,SW,229,1.0,3.0,63,0.00,SCT,,0.00,WeatherDisplay:10.37,2013-04-27 15:16:00,
2013-04-27 11:31:00,62.9,49.7,30.37,SW,230,1.0,4.0,62,0.00,OVC,,0.00,WeatherDisplay:10.37,2013-04-27 15:31:00,
2013-04-27 11:46:00,63.7,50.0,30.37,SW,227,1.0,5.0,61,0.00,OVC,,0.00,WeatherDisplay:10.37,2013-04-27 15:46:00,
2013-04-27 12:01:00,64.7,50.5,30.36,SW,224,3.0,5.0,60,0.00,OVC,,0.00,WeatherDisplay:10.37,2013-04-27 16:01:00,
2013-04-27 12:16:00,65.6,51.8,30.36,SW,222,1.0,4.0,61,0.00,OVC,,0.00,WeatherDisplay:10.37,2013-04-27 16:16:00,
2013-04-27 12:31:00,65.5,51.2,30.36,SSW,208,2.0,8.0,60,0.00,BKN,,0.00,WeatherDisplay:10.37,2013-04-27 16:31:00,
2013-04-27 12:46:00,65.9,51.6,30.35,SSW,198,2.0,9.0,60,0.00,BKN,,0.00,WeatherDisplay:10.37,2013-04-27 16:46:00,
2013-04-27 13:01:00,66.0,50.8,30.35,SW,236,3.0,7.0,58,0.00,BKN,,0.00,WeatherDisplay:10.37,2013-04-27 17:01:00,
2013-04-27 13:16:00,64.9,51.1,30.35,SW,224,1.0,7.0,61,0.00,BKN,,0.00,WeatherDisplay:10.37,2013-04-27 17:16:00,
2013-04-27 13:31:00,64.5,50.7,30.35,SW,218,2.0,6.0,61,0.00,OVC,,0.00,WeatherDisplay:10.37,2013-04-27 17:31:00,
2013-04-27 13:46:00,64.3,51.0,30.35,SW,216,2.0,5.0,62,0.00,OVC,,0.00,WeatherDisplay:10.37,2013-04-27 17:46:00,
2013-04-27 14:01:00,64.4,51.5,30.35,SW,217,0.0,2.0,63,0.00,OVC,,0.00,WeatherDisplay:10.37,2013-04-27 18:01:00,
2013-04-27 14:16:00,64.3,50.6,30.35,SSW,209,0.0,3.0,61,0.00,OVC,,0.00,WeatherDisplay:10.37,2013-04-27 18:16:00,
2013-04-27 14:31:00,64.0,50.3,30.35,SSW,209,1.0,3.0,61,0.00,OVC,,0.00,WeatherDisplay:10.37,2013-04-27 18:31:00,
2013-04-27 14:46:00,63.7,50.9,30.35,SSW,209,0.0,3.0,63,0.00,OVC,,0.00,WeatherDisplay:10.37,2013-04-27 18:46:00,
2013-04-27 15:01:00,63.1,50.7,30.35,SSW,209,0.0,2.0,64,0.00,OVC,,0.00,WeatherDisplay:10.37,2013-04-27 19:01:00,
2013-04-27 15:16:00,63.0,51.0,30.36,SSW,209,1.0,3.0,65,0.00,OVC,,0.00,WeatherDisplay:10.37,2013-04-27 19:16:00,
2013-04-27 15:31:00,62.9,51.0,30.36,SSW,209,1.0,4.0,65,0.00,OVC,,0.00,WeatherDisplay:10.37,2013-04-27 19:31:00,
2013-04-27 15:46:00,63.0,51.0,30.35,SSW,208,1.0,7.0,65,0.00,OVC,,0.00,WeatherDisplay:10.37,2013-04-27 19:46:00,
2013-04-27 16:01:00,63.1,50.3,30.34,SSE,168,1.0,7.0,63,0.00,OVC,,0.00,WeatherDisplay:10.37,2013-04-27 20:01:00,
2013-04-27 16:16:00,63.3,50.5,30.34,SSW,202,1.0,5.0,63,0.00,OVC,,0.00,WeatherDisplay:10.37,2013-04-27 20:16:00,
2013-04-27 16:31:00,63.3,50.9,30.34,SSW,207,1.0,3.0,64,0.00,OVC,,0.00,WeatherDisplay:10.37,2013-04-27 20:31:00,
2013-04-27 16:46:00,62.8,49.6,30.34,SSW,207,2.0,3.0,62,0.00,OVC,,0.00,WeatherDisplay:10.37,2013-04-27 20:46:00,
2013-04-27 17:01:00,63.0,50.2,30.33,WSW,238,0.0,3.0,63,0.00,OVC,,0.00,WeatherDisplay:10.37,2013-04-27 21:01:00,
2013-04-27 17:16:00,63.2,49.9,30.33,WSW,238,1.0,3.0,62,0.00,OVC,,0.00,WeatherDisplay:10.37,2013-04-27 21:16:00,
2013-04-27 17:31:00,62.8,50.0,30.34,WSW,238,1.0,3.0,63,0.00,OVC,,0.00,WeatherDisplay:10.37,2013-04-27 21:31:00,
2013-04-27 17:46:00,62.5,50.2,30.34,WSW,237,0.0,5.0,64,0.00,OVC,,0.00,WeatherDisplay:10.37,2013-04-27 21:46:00,
2013-04-27 18:01:00,62.4,51.7,30.33,WSW,237,0.0,2.0,68,0.00,OVC,,0.00,WeatherDisplay:10.37,2013-04-27 22:01:00,
2013-04-27 18:16:00,62.2,51.9,30.33,WSW,237,0.0,2.0,69,0.00,OVC,,0.00,WeatherDisplay:10.37,2013-04-27 22:16:00,
2013-04-27 18:31:00,61.7,51.8,30.32,WSW,237,0.0,1.0,70,0.00,OVC,,0.00,WeatherDisplay:10.37,2013-04-27 22:31:00,
2013-04-27 18:46:00,60.9,51.0,30.31,WSW,237,0.0,2.0,70,0.00,OVC,,0.00,WeatherDisplay:10.37,2013-04-27 22:46:00,
2013-04-27 19:01:00,60.5,51.4,30.31,WSW,237,0.0,2.0,72,0.00,OVC,,0.00,WeatherDisplay:10.37,2013-04-27 23:01:00,
2013-04-27 19:16:00,60.0,51.0,30.31,WSW,237,0.0,3.0,72,0.00,OVC,,0.00,WeatherDisplay:10.37,2013-04-27 23:16:00,
2013-04-27 19:31:00,59.3,49.9,30.32,SSW,199,1.0,8.0,71,0.00,SCT,,0.00,WeatherDisplay:10.37,2013-04-27 23:31:00,
2013-04-27 19:46:00,58.7,49.7,30.31,SSW,202,0.0,2.0,72,0.00,SCT,,0.00,WeatherDisplay:10.37,2013-04-27 23:46:00,
2013-04-27 20:01:00,58.3,49.3,30.32,SSW,212,0.0,3.0,72,0.00,SCT,,0.00,WeatherDisplay:10.37,2013-04-28 00:01:00,
2013-04-27 20:16:00,57.9,49.3,30.32,SSW,212,0.0,2.0,73,0.00,SCT,,0.00,WeatherDisplay:10.37,2013-04-28 00:16:00,
2013-04-27 20:31:00,57.5,49.3,30.32,SSW,212,0.0,1.0,74,0.00,OVC,,0.00,WeatherDisplay:10.37,2013-04-28 00:31:00,
2013-04-27 20:46:00,57.2,49.7,30.32,SSW,212,0.0,1.0,76,0.00,OVC,,0.00,WeatherDisplay:10.37,2013-04-28 00:46:00,
2013-04-27 21:01:00,56.5,50.1,30.32,SSW,212,0.0,1.0,79,0.00,OVC,,0.00,WeatherDisplay:10.37,2013-04-28 01:01:00,
2013-04-27 21:16:00,55.8,50.4,30.32,SSW,212,0.0,1.0,82,0.00,OVC,,0.00,WeatherDisplay:10.37,2013-04-28 01:16:00,
2013-04-27 21:31:00,55.4,50.3,30.31,SSW,212,0.0,0.0,83,0.00,OVC,,0.00,WeatherDisplay:10.37,2013-04-28 01:31:00,
2013-04-27 21:46:00,55.2,50.4,30.32,SSW,212,0.0,1.0,84,0.00,OVC,,0.00,WeatherDisplay:10.37,2013-04-28 01:46:00,
2013-04-27 22:01:00,54.9,50.5,30.31,SSW,212,0.0,2.0,85,0.00,OVC,,0.00,WeatherDisplay:10.37,2013-04-28 02:01:00,
2013-04-27 22:16:00,54.6,50.5,30.30,SSW,212,0.0,0.0,86,0.00,OVC,,0.00,WeatherDisplay:10.37,2013-04-28 02:16:00,
2013-04-27 22:31:00,54.3,50.5,30.30,SSW,212,0.0,0.0,87,0.00,OVC,,0.00,WeatherDisplay:10.37,2013-04-28 02:31:00,
2013-04-27 22:46:00,54.1,50.3,30.30,SSW,212,0.0,0.0,87,0.00,OVC,,0.00,WeatherDisplay:10.37,2013-04-28 02:46:00,
2013-04-27 23:01:00,54.1,50.3,30.30,SSW,212,0.0,0.0,87,0.00,OVC,,0.00,WeatherDisplay:10.37,2013-04-28 03:01:00,
2013-04-27 23:16:00,54.1,50.6,30.30,SSW,212,0.0,0.0,88,0.00,OVC,,0.00,WeatherDisplay:10.37,2013-04-28 03:16:00,
2013-04-27 23:31:00,54.0,50.5,30.30,SSW,212,0.0,0.0,88,0.00,OVC,,0.00,WeatherDisplay:10.37,2013-04-28 03:31:00,
2013-04-27 23:46:00,54.0,50.5,30.29,SSW,212,0.0,0.0,88,0.00,OVC,,0.00,WeatherDisplay:10.37,2013-04-28 03:46:00,